Temp
81 75 72 79 81 83 84 82 80 86 91 87 86 87 90 94 92 91 90 88 89 89 92 93 93 94 93 92 89 87 86 86 87 87 88 88 89 90 92 93 92 91 90 90
77 71 81 84 84 81 81 79 80 86 88 86 86 85 91 94 92 92 92 89 90 91 91 91 91 92 92 90 89 87 86 85 86 89 89 91 90 93 93 94 92 91 91 90
75 79 84 81 79 76 77 77 79 80 86 88 85 82 86 92 94 94 96 95 93 92 91 91 91 91 93 90 89 87 86 86 86 88 89 88 90 90 91 92 92 92 91 92
78 85 80 79 77 78 73 83 82 81 78 74 86 72 84 90 90 91 94 95 94 94 94 95 93 92 92 91 91 89 87 86 86 86 88 85 87 88 91 92 94 94 92 92
74 78 78 76 77 82 77 86 81 80 78 78 79 75 82 89 86 89 93 95 95 96 96 95 95 94 95 94 93 91 88 86 87 86 86 87 86 91 93 93 91 89 91 91
81 87 85 82 83 84 84 81 80 79 78 68 77 77 78 84 85 90 94 96 95 97 97 97 98 97 95 96 95 93 88 86 86 86 84 86 86 87 91 90 91 92 93 93
76 79 84 85 79 83 81 76 66 64 65 65 81 76 79 89 94 94 95 96 97 97 98 97 95 96 95 94 93 93 89 84 86 86 86 85 86 86 87 88 90 91 93 94
68 65 79 84 80 77 76 77 70 58 64 70 80 71 79 92 96 96 98 101 100 98 98 97 96 96 95 94 94 92 89 85 86 86 86 86 86 89 90 90 93 93 95 95
71 71 84 84 85 84 76 73 84 76 76 71 79 80 88 92 93 94 96 98 100 99 98 98 99 98 96 94 93 92 89 86 86 87 86 86 86 86 90 89 89 93 92 96
77 70 82 83 85 86 83 84 72 76 61 60 73 74 77 83 86 92 94 98 100 101 100 100 100 99 99 98 95 93 91 87 87 88 88 88 88 87 88 90 88 89 92 91
76 76 76 81 76 76 77 76 78 80 76 67 66 75 90 87 89 90 95 98 100 101 101 101 101 101 100 100 98 95 92 89 88 89 89 88 89 89 88 89 89 89 89 90
75 75 70 74 84 87 84 78 79 70 66 73 74 78 92 92 95 95 96 98 102 103 104 104 104 103 101 99 100 97 95 93 91 91 89 88 89 88 89 88 90 90 89 89
71 69 65 69 78 82 78 80 83 82 81 69 68 75 90 90 90 93 95 98 99 100 102 104 105 103 100 100 97 98 97 97 96 92 91 89 88 88 88 88 88 90 88 89
64 69 68 67 70 77 72 78 80 80 72 74 74 78 84 87 88 91 93 95 97 97 96 98 100 102 102 99 98 96 98 99 98 96 92 89 88 88 89 89 88 89 89 88
66 62 63 70 66 67 74 76 78 76 77 72 78 78 83 88 90 91 93 94 94 94 95 96 97 99 99 98 96 95 96 97 98 95 93 90 88 89 88 88 88 89 88 89
64 58 60 60 66 65 64 70 73 77 79 78 79 79 90 92 91 91 92 92 93 95 97 97 97 98 98 97 96 95 94 95 95 94 91 90 89 88 87 87 87 87 87 87
57 59 56 56 66 65 59 67 70 73 76 76 71 79 86 85 85 87 88 91 92 94 96 98 98 97 98 100 98 95 94 94 92 91 91 89 89 87 87 87 86 86 86 87
55 55 58 57 60 48 69 81 77 73 76 79 79 81 84 85 88 90 92 91 92 95 97 98 102 104 101 103 105 99 98 92 90 88 89 89 88 87 87 86 86 85 87 86
60 56 54 52 54 62 68 70 70 70 71 80 79 82 85 88 88 87 93 95 95 96 99 100 105 106 105 105 104 99 94 94 90 89 88 89 89 87 86 85 85 86 86 86
60 57 54 55 48 48 66 76 78 77 63 79 79 79 80 85 78 85 94 97 97 99 99 99 101 104 104 102 104 99 94 92 89 89 89 90 89 88 86 86 85 86 86 86
51 51 48 50 50 59 71 73 75 58 64 77 78 78 77 76 80 82 86 87 91 91 93 97 97 97 98 99 97 95 93 91 92 93 92 90 90 88 87 87 86 86 86 87
50 48 49 50 48 46 72 71 63 69 71 73 74 76 75 78 80 83 84 84 86 88 90 95 95 94 96 94 91 90 88 91 92 92 91 90 88 89 90 86 86 85 84 83
47 55 54 55 56 66 71 71 73 73 70 71 72 75 77 77 79 81 82 83 85 86 91 96 93 91 90 89 88 87 88 90 90 89 88 88 88 88 89 85 84 85 84 86
56 61 54 54 59 62 66 69 71 72 71 72 74 75 77 76 79 79 80 83 85 88 90 90 89 88 86 87 88 88 88 88 87 86 86 87 86 85 87 89 89 88 88 86
56 59 55 55 59 61 64 67 68 69 71 72 74 76 76 77 78 78 78 81 85 87 87 88 87 86 84 83 86 88 87 87 86 86 87 87 89 85 87 88 84 89 90 82
57 53 51 50 60 60 61 67 68 67 68 68 70 72 75 77 76 77 77 82 82 79 80 84 81 78 77 75 75 83 87 87 87 86 88 90 90 89 87 83 74 50 50 46
MSLP
1003.13 1002.68 1000.78 1000.63 1000.94 1000.58 999.59 999.18 998.84 998.72 998.81 999.26 999.08 999.13 999.33 999.96 1001.09 1001.77 1002.97 1004.36 1005.03 1005.76 1006.92 1007.98 1009.02 1009.82 1010.66 1011.44 1012.40 1013.30 1013.95 1014.48 1015.11 1015.44 1015.51 1015.67 1015.75 1016.12 1016.30 1016.37 1016.71 1017.04 1017.27 1017.42
1002.00 1000.17 1000.57 1000.91 1000.76 1000.58 999.99 999.49 998.78 998.56 998.82 999.37 998.77 998.59 998.80 998.95 999.89 1000.74 1001.59 1002.95 1003.86 1004.92 1005.98 1007.06 1008.04 1008.90 1009.73 1010.64 1011.57 1012.57 1013.38 1014.06 1014.66 1014.79 1014.99 1015.10 1015.39 1015.51 1015.67 1015.78 1016.07 1016.53 1016.72 1017.03
999.08 999.08 1000.19 1000.30 1000.33 1000.36 1000.05 999.40 999.04 998.73 998.71 999.04 998.75 998.19 998.17 998.51 999.15 999.77 1000.37 1001.56 1002.85 1003.68 1004.72 1005.86 1006.95 1007.78 1008.71 1009.68 1010.69 1011.63 1012.66 1013.40 1014.10 1014.38 1014.77 1015.16 1015.28 1015.46 1015.30 1015.32 1015.65 1016.06 1016.39 1016.57
998.89 998.74 999.09 999.36 999.42 999.99 999.18 999.69 999.62 999.24 999.30 998.01 998.19 996.89 996.57 997.05 997.73 998.80 999.47 1000.17 1001.19 1002.21 1003.56 1004.58 1005.64 1006.81 1007.62 1008.56 1009.83 1010.80 1011.91 1012.78 1013.46 1014.10 1014.01 1014.28 1014.34 1014.27 1014.43 1014.81 1014.99 1015.22 1015.89 1016.12
997.35 997.77 998.08 998.27 998.56 999.34 998.89 999.20 999.58 999.61 999.09 998.70 997.50 997.10 995.77 995.79 996.51 997.23 998.14 998.86 999.92 1000.79 1001.93 1003.09 1004.20 1005.36 1006.40 1007.68 1008.66 1009.76 1010.96 1011.91 1012.46 1013.16 1013.39 1013.69 1013.95 1013.82 1013.94 1014.27 1014.52 1015.10 1015.26 1015.80
997.08 997.35 997.42 997.28 998.39 998.82 999.37 999.41 999.54 999.66 999.02 997.23 996.72 996.28 994.66 994.64 995.55 996.10 996.83 997.66 998.75 999.67 1000.70 1001.86 1002.99 1004.46 1005.63 1006.82 1007.89 1008.87 1009.94 1010.82 1011.69 1012.22 1012.84 1012.91 1013.05 1013.35 1013.35 1013.73 1014.01 1014.41 1014.78 1015.05
996.66 996.16 996.86 997.10 997.51 998.15 998.75 998.61 998.03 997.80 996.76 995.02 995.93 995.28 994.07 994.01 994.35 995.05 995.40 996.27 997.43 998.56 999.58 1000.63 1001.95 1003.03 1004.29 1005.42 1006.57 1007.62 1008.71 1009.76 1010.70 1011.41 1011.87 1012.29 1012.61 1013.01 1013.12 1013.28 1013.62 1013.55 1013.81 1014.10
995.05 994.93 995.06 995.27 995.81 996.25 997.14 996.93 995.26 994.62 994.13 994.65 995.00 993.01 992.68 993.89 994.42 994.42 994.92 994.81 996.24 997.51 998.64 999.55 1000.61 1001.87 1002.99 1004.13 1005.33 1006.54 1007.60 1008.84 1009.70 1010.38 1010.85 1011.42 1011.90 1012.26 1012.64 1012.93 1012.85 1013.07 1013.07 1013.33
993.40 993.02 993.63 994.45 995.27 995.44 995.86 995.43 995.12 994.08 994.23 993.69 992.50 992.87 993.21 993.17 993.19 993.73 994.02 994.23 994.60 996.03 997.27 998.40 999.27 1000.39 1001.64 1002.92 1004.05 1005.21 1006.36 1007.43 1008.32 1008.78 1009.67 1010.25 1010.83 1011.28 1011.33 1011.87 1012.38 1012.52 1012.66 1012.74
993.67 992.94 992.97 994.21 995.02 994.60 994.09 995.40 995.11 994.29 993.60 992.89 992.00 991.71 991.41 991.63 992.40 992.63 992.88 993.09 993.71 994.70 995.77 997.10 998.23 999.14 1000.19 1001.30 1002.57 1003.93 1005.09 1005.86 1006.63 1007.70 1008.39 1008.93 1009.48 1010.12 1010.61 1011.01 1011.49 1011.78 1012.01 1012.59
995.73 993.63 992.52 993.32 992.58 992.43 993.56 993.49 993.98 993.89 993.25 991.97 991.44 990.44 990.40 991.01 991.48 991.87 991.99 992.50 992.97 993.74 994.68 995.77 996.77 997.85 998.86 1000.03 1001.31 1002.41 1003.64 1004.58 1005.52 1006.15 1006.73 1007.50 1008.02 1008.73 1009.46 1009.89 1010.40 1010.97 1011.52 1011.85
996.77 994.89 992.68 991.91 992.51 992.73 992.72 992.87 993.13 992.57 992.74 992.74 991.66 990.30 990.75 990.90 990.99 991.50 991.66 992.06 992.53 993.18 993.77 994.74 995.50 996.57 997.74 998.80 999.76 1000.65 1001.75 1002.89 1003.71 1004.57 1005.51 1005.96 1006.71 1007.46 1008.03 1008.65 1009.19 1009.98 1010.57 1011.19
998.16 995.75 993.62 992.69 992.77 992.70 991.78 992.26 992.48 992.87 992.24 991.65 991.66 990.97 991.49 991.72 991.69 991.72 991.78 991.97 992.51 993.07 993.58 994.13 994.72 995.46 996.56 997.61 998.64 999.32 1000.28 1000.95 1002.11 1003.38 1004.13 1004.97 1005.48 1006.04 1006.48 1007.20 1008.03 1008.64 1009.26 1009.88
1000.08 996.60 994.09 991.95 992.06 992.24 992.25 991.73 992.24 992.10 991.54 991.04 991.00 991.13 991.41 991.58 991.70 992.18 992.53 992.87 993.17 993.66 994.16 994.39 994.72 995.03 995.61 996.59 997.44 998.35 998.93 999.94 1000.86 1001.78 1002.72 1003.33 1004.02 1004.34 1005.07 1005.96 1006.67 1007.35 1007.97 1008.71
1000.10 997.48 996.88 994.96 995.14 994.26 992.35 991.96 991.85 991.27 991.54 990.96 990.95 991.10 991.52 991.68 992.02 992.39 992.80 992.98 993.35 993.74 994.07 994.12 994.33 994.50 994.97 995.72 996.51 997.36 998.21 998.95 999.66 1000.63 1001.39 1002.08 1002.70 1003.48 1004.41 1005.04 1005.67 1006.31 1006.97 1007.47
1001.34 999.18 998.57 996.91 996.29 995.71 994.56 993.61 992.74 991.97 991.65 991.75 991.60 991.19 991.72 992.28 992.66 992.64 992.88 993.20 993.11 993.23 993.38 993.76 993.99 994.11 994.44 994.97 995.69 996.54 997.27 997.89 999.04 999.35 1000.04 1000.93 1002.01 1002.80 1003.35 1003.99 1004.50 1005.28 1005.81 1006.41
1002.71 1000.65 999.67 997.34 996.57 996.09 994.64 993.63 993.51 993.23 992.89 992.76 991.89 992.66 993.05 992.90 993.31 993.31 993.12 992.97 992.78 992.89 992.97 993.19 993.44 993.68 993.84 994.16 994.73 995.34 996.10 997.50 998.05 998.69 999.34 1000.22 1001.04 1001.74 1002.43 1003.36 1004.21 1004.59 1005.10 1005.79
1003.43 1002.29 1000.64 998.21 997.35 995.70 993.28 992.87 993.19 993.47 993.40 993.51 993.40 993.29 993.24 993.29 993.44 993.48 993.49 993.22 992.95 992.56 992.47 992.58 992.69 992.71 993.38 993.70 993.83 994.61 995.48 996.43 997.14 997.79 998.50 999.27 1000.04 1000.67 1001.68 1002.35 1002.60 1003.15 1003.85 1004.46
1004.15 1003.09 1001.06 999.51 997.62 995.10 993.84 994.12 994.07 993.66 993.33 993.62 993.52 993.42 993.29 993.48 993.51 993.21 993.16 992.87 992.49 992.06 991.72 991.67 991.70 991.94 992.25 992.67 992.99 993.87 994.81 995.43 996.31 996.77 997.29 997.88 998.90 999.90 1000.66 1001.00 1001.43 1002.99 1003.72 1004.21
1003.69 1003.92 1002.51 1000.07 998.38 995.71 994.68 994.02 994.88 994.78 994.47 994.29 994.25 994.36 994.03 993.55 992.79 992.47 992.43 992.27 992.11 991.94 991.85 991.74 991.76 991.81 991.96 992.11 992.56 993.11 993.95 994.64 995.04 995.34 995.82 997.34 998.12 998.85 999.38 1000.34 1001.37 1002.15 1002.86 1003.30
1003.01 1003.17 1002.21 1000.89 998.97 996.61 995.48 995.81 995.96 995.58 995.52 995.13 995.27 995.19 995.10 994.64 994.45 994.14 993.65 993.23 992.93 992.73 992.32 992.01 991.72 991.67 991.49 991.81 992.15 992.42 993.26 993.58 993.58 995.15 995.75 996.55 997.28 998.10 999.09 999.88 1000.46 1001.11 1001.63 1001.94
1002.24 1002.25 1001.34 1001.14 999.46 997.61 997.28 996.78 996.48 996.76 997.10 996.93 996.81 996.50 996.06 995.63 995.38 994.86 994.42 993.74 993.14 992.61 992.40 991.84 991.36 991.43 991.59 991.89 992.08 992.17 992.56 992.84 994.04 994.62 995.11 995.78 996.73 997.51 998.16 998.94 999.63 1000.19 1000.81 1001.24
1002.93 1001.76 1000.54 1000.21 998.94 998.74 998.34 997.74 997.60 997.86 997.66 997.62 997.18 997.01 996.40 995.78 995.40 995.07 994.47 994.01 993.10 992.59 991.80 991.29 991.38 991.42 991.88 991.98 991.90 991.88 992.16 992.94 993.52 994.12 994.63 995.29 996.10 996.83 997.16 998.11 999.01 999.68 1000.20 1000.07
1003.05 1002.50 1001.59 1001.23 1000.12 999.53 999.39 999.36 998.82 998.88 998.50 997.99 997.72 997.01 996.57 995.38 994.73 994.87 994.65 993.82 992.92 992.37 991.83 991.91 991.70 991.70 992.04 992.14 991.97 991.84 992.21 992.88 993.37 993.72 994.30 994.88 995.60 996.27 996.77 997.44 998.39 998.88 999.12 999.81
1003.19 1002.21 1001.56 1000.47 1000.21 1000.30 999.92 999.70 999.73 999.03 999.20 998.46 997.57 996.78 996.26 995.95 994.71 994.58 994.12 993.67 992.82 992.30 992.32 992.14 991.93 992.21 992.51 992.60 992.44 992.37 992.35 992.80 992.97 993.42 993.87 994.39 994.94 995.73 996.25 997.10 998.60 998.90 999.21 999.92
1003.28 1002.20 1001.45 999.99 1000.12 999.81 999.65 999.61 999.76 999.30 998.88 999.26 998.38 997.24 996.47 996.25 995.31 995.42 994.58 993.49 993.23 993.37 993.29 992.69 993.01 993.45 993.56 993.57 993.60 993.17 992.78 993.03 993.11 993.51 993.89 994.29 994.47 995.09 996.00 997.34 999.40 1000.11 1000.19 1000.24
Wind_Speed
24 20 26 26 24 20 16 16 20 16 10 13 16 15 13 13 18 18 19 20 22 23 23 22 22 21 20 19 19 19 18 16 13 12 12 11 10 9 9 9 9 8 9 9
19 28 23 21 20 20 22 17 20 13 7 12 15 15 14 12 17 18 19 22 23 22 22 22 23 22 22 21 20 19 19 18 15 12 11 10 9 10 10 9 9 8 9 8
24 14 24 23 21 23 23 23 18 16 14 15 14 16 15 14 14 15 19 20 21 22 23 24 24 24 23 22 22 20 19 18 17 15 10 9 9 9 10 10 9 9 9 9
24 17 25 24 26 24 25 23 19 18 12 13 16 17 21 22 17 18 18 20 22 24 24 23 25 25 25 23 21 21 19 19 17 17 13 13 12 11 11 11 10 9 11 10
20 26 23 28 25 25 20 16 18 20 17 17 22 11 15 13 17 19 19 21 23 24 25 25 26 26 26 23 22 20 20 19 18 18 16 13 14 12 9 10 10 10 10 11
27 16 25 23 18 23 13 16 13 15 16 21 23 21 19 17 18 18 19 19 22 23 25 25 24 23 23 22 21 20 20 19 19 19 20 17 16 14 12 11 10 10 10 10
26 25 18 15 24 20 22 20 11 13 18 19 22 23 18 8 19 20 18 20 22 23 23 24 24 23 23 25 24 21 20 20 20 21 20 20 18 17 15 12 11 10 10 9
22 23 30 24 25 21 28 24 11 17 15 17 17 22 23 23 20 6 19 17 19 21 21 23 26 24 24 25 24 23 20 20 22 22 20 18 19 15 14 14 13 11 11 10
22 24 28 20 22 24 26 28 26 12 5 9 14 19 16 13 21 24 23 19 18 21 23 25 26 26 25 24 23 23 22 22 22 24 19 19 19 19 16 16 14 13 11 10
15 19 18 24 26 26 20 24 22 16 16 19 13 19 13 22 22 21 23 22 20 21 22 23 23 25 24 26 25 25 24 24 24 22 20 18 19 19 18 15 16 15 13 14
14 15 22 24 28 28 23 19 25 17 17 12 11 12 15 18 17 23 22 22 20 20 20 21 22 23 24 22 23 24 25 24 23 22 21 20 19 21 19 18 17 17 15 14
14 11 12 25 19 25 28 24 29 14 22 18 15 7 7 6 16 18 19 20 19 19 18 19 20 20 21 23 23 25 25 25 25 21 21 22 20 20 20 19 19 18 17 16
3 14 15 15 21 24 28 28 25 24 16 21 17 5 8 7 1 3 9 12 14 14 13 14 15 17 19 20 20 23 24 26 24 22 23 21 21 21 21 21 20 20 19 19
7 12 22 17 15 18 28 30 28 28 21 17 18 15 11 5 7 10 7 6 8 9 12 13 14 15 16 18 17 20 22 22 22 23 23 22 22 23 21 20 20 20 19 19
8 14 7 13 1 5 13 27 30 30 26 26 18 21 18 11 6 4 5 4 1 4 8 11 13 15 16 16 16 19 21 19 20 20 21 21 21 20 18 19 20 19 19 19
7 4 6 15 10 7 10 12 15 25 28 26 25 22 10 11 11 17 18 15 14 14 7 9 12 13 15 15 17 17 19 20 19 19 22 20 19 19 20 19 20 19 20 20
7 6 7 15 12 10 16 22 20 18 18 17 23 16 15 18 13 13 12 13 14 15 15 11 11 13 13 13 14 18 18 17 19 20 18 19 18 19 19 18 17 18 19 18
8 8 8 7 6 18 10 10 25 24 20 20 17 15 15 14 16 17 17 18 19 20 17 15 14 12 13 14 14 14 15 17 18 19 19 18 19 19 17 18 21 20 18 19
13 9 8 11 13 11 6 5 8 10 16 17 18 13 18 18 19 20 18 18 19 21 19 17 15 14 13 11 13 13 16 18 19 19 20 20 19 18 18 21 20 15 15 16
14 12 10 8 17 19 3 18 8 6 11 11 5 8 6 8 15 12 14 17 16 18 17 18 19 17 16 15 13 14 17 17 19 21 21 17 17 18 19 17 15 13 15 15
13 12 15 14 13 9 11 7 3 13 7 8 1 4 5 6 8 16 21 22 18 16 18 16 16 15 15 11 11 13 15 19 19 15 17 16 16 15 14 14 14 14 15 14
11 11 12 16 18 23 10 12 15 11 10 13 12 12 13 14 13 15 17 21 20 20 19 20 15 13 11 10 11 13 15 14 12 13 15 14 14 13 14 15 14 15 15 16
14 12 11 11 11 11 9 13 14 14 16 16 18 16 17 19 18 18 18 19 20 18 16 12 10 9 9 9 11 12 11 11 12 13 13 13 14 14 12 15 14 13 15 14
17 16 14 16 18 22 18 18 20 19 20 21 21 23 20 24 22 20 19 19 17 15 12 9 8 9 8 6 9 10 11 12 13 13 13 12 13 14 14 12 12 12 13 13
13 13 18 21 22 23 24 18 22 25 22 24 25 25 22 22 25 24 23 20 16 12 8 9 6 7 5 4 6 9 11 13 13 13 12 13 12 13 12 8 2 10 12 5
17 24 19 18 16 15 18 17 17 19 18 18 22 23 24 23 24 22 23 16 7 5 6 4 5 6 6 7 6 4 6 9 9 10 9 8 7 9 8 8 5 14 13 12
Wind_Direction
190 200 207 204 214 227 228 221 227 209 212 221 230 231 233 189 197 206 190 193 194 197 193 194 196 196 197 198 196 197 201 196 196 201 201 206 209 209 218 223 224 227 234 232
184 216 212 216 209 223 231 229 227 228 161 233 233 233 231 213 205 208 197 196 203 193 191 194 194 197 198 198 200 199 204 200 202 202 208 210 209 212 216 214 218 223 221 217
199 203 213 207 210 212 222 226 229 231 201 230 256 251 233 211 211 211 209 201 202 198 194 191 195 198 197 200 201 200 201 202 203 215 201 203 217 229 211 217 213 211 216 212
222 198 199 206 216 208 219 216 237 241 222 241 197 253 223 220 205 206 208 201 201 199 196 194 194 198 200 201 200 201 200 202 202 203 202 204 209 207 212 213 215 214 210 218
199 213 194 211 212 211 231 220 219 235 242 250 248 248 255 195 216 208 210 204 202 200 195 199 198 198 203 200 200 200 200 201 203 197 216 198 217 212 210 219 216 212 210 222
224 207 215 219 213 221 211 222 222 230 234 239 235 240 242 232 213 221 209 207 201 203 199 199 203 199 203 203 203 200 200 204 203 198 202 206 205 220 211 209 214 222 217 210
211 216 218 208 213 205 201 195 195 208 217 235 226 235 235 252 233 215 218 204 201 200 202 198 199 201 200 202 202 202 198 201 202 204 205 209 212 207 219 213 211 223 216 215
204 212 202 192 207 196 196 204 211 211 219 226 215 233 234 233 239 238 235 216 197 200 202 202 198 200 203 203 200 202 196 200 203 205 208 207 210 215 216 214 229 218 227 214
196 225 183 200 197 199 191 214 217 253 184 271 225 215 241 254 219 223 230 222 206 196 198 204 203 201 199 201 203 199 199 199 201 202 203 206 208 215 216 221 207 226 221 222
261 220 184 190 195 209 210 203 213 227 243 241 224 232 226 210 215 219 214 212 205 198 199 203 206 206 204 201 201 199 201 200 201 204 204 207 208 210 215 211 216 215 218 218
254 242 182 182 201 194 199 200 214 226 232 217 235 232 209 229 210 215 211 210 202 197 196 201 204 207 208 206 202 202 201 202 201 202 203 206 207 208 210 214 211 213 213 206
219 243 204 203 197 211 204 205 202 216 209 240 282 262 113 227 215 215 214 208 211 206 202 202 203 204 204 205 208 204 205 205 206 204 202 203 204 206 208 210 210 207 211 207
159 223 212 185 200 203 218 201 209 218 231 209 221 209 122 117 148 218 232 226 216 219 226 221 211 203 206 207 208 212 206 210 207 204 204 206 207 205 206 206 208 206 204 206
258 249 225 215 213 198 213 209 214 213 223 224 209 235 161 205 143 147 168 199 218 211 227 232 232 218 213 210 207 208 212 211 209 204 208 208 207 207 206 206 206 207 205 204
317 223 241 252 315 292 243 214 209 218 222 227 228 213 239 252 229 237 314 318 352 213 230 225 226 223 217 212 211 207 212 209 210 203 208 208 211 210 206 207 207 208 207 206
335 197 259 247 216 226 242 233 244 236 224 233 240 247 221 216 302 270 269 291 286 275 254 247 235 228 217 212 212 211 210 209 205 205 208 209 207 206 207 207 208 207 208 207
289 288 238 229 210 240 242 224 221 228 233 240 237 244 249 258 247 258 276 287 294 286 276 258 240 233 234 229 217 215 208 201 203 211 206 207 207 206 207 207 210 213 212 210
272 241 259 257 181 237 248 212 208 224 229 228 245 254 258 249 248 254 256 263 269 274 274 263 252 232 223 233 241 215 208 203 204 204 206 205 205 207 202 204 209 210 207 212
215 257 246 238 227 284 213 158 218 218 229 233 247 254 245 244 247 251 257 263 263 260 264 263 266 270 276 261 242 233 207 202 204 206 208 205 203 201 201 208 211 209 212 215
202 223 250 215 240 232 241 225 203 292 258 257 218 244 286 267 245 247 248 251 272 263 267 275 276 273 259 248 246 213 209 205 204 206 208 202 202 203 206 206 206 206 210 214
190 208 224 229 251 250 265 86 321 195 72 51 55 323 320 303 325 320 308 300 293 297 302 288 278 267 263 244 221 216 207 212 213 207 206 204 205 204 204 201 200 199 201 204
202 201 207 232 243 238 268 294 237 15 338 329 318 316 314 309 304 297 300 299 294 286 282 278 274 261 246 223 208 210 205 213 203 209 206 201 199 200 195 200 197 198 199 204
243 258 263 217 229 265 285 264 313 316 307 307 307 308 310 301 301 302 305 303 294 287 281 274 272 244 231 221 209 203 203 194 190 195 195 193 192 196 199 188 195 198 204 215
260 271 262 265 258 269 275 278 281 292 294 300 297 299 298 299 302 302 303 301 289 277 271 263 241 228 221 211 203 199 175 179 181 185 190 187 187 188 191 186 195 206 205 209
272 275 253 259 257 264 268 272 277 278 282 285 288 289 292 294 294 305 304 294 283 262 254 240 211 205 169 155 180 171 165 176 176 177 179 179 185 186 180 183 231 217 213 246
249 251 247 251 265 270 264 259 271 276 285 287 290 288 289 286 287 298 288 292 292 241 225 185 101 119 120 96 69 67 151 176 178 171 173 172 158 166 175 168 121 51 38 24